• In Uzbekistan
  • List of Countries
  • For 7 days
  • Water Temperature
  • Satellite Maps
  • Weather Map
  • Weather Widgets
  • user-avatar
    Login

    Hourly Weather Novomar'yanivka

    Today, 17 December, Sunday

    Time Temperature Precipitation Wind Pressure Humidity
    00:00 +9°C° 0 mm 6 mps 748 mmHg 85%
    01:00 +9°C° 0 mm 5 mps 748 mmHg 86%
    02:00 +9°C° 0 mm 5 mps 748 mmHg 88%
    03:00 +10°C° 0 mm 4 mps 749 mmHg 89%
    04:00 +10°C° 0 mm 4 mps 749 mmHg 91%
    05:00 +10°C° 0 mm 3 mps 749 mmHg 92%
    06:00 +10°C° 0.2 mm 3 mps 749 mmHg 92%
    07:00 +8°C° 0.2 mm 4 mps 749 mmHg 92%
    08:00 +8°C° 0.2 mm 4 mps 750 mmHg 93%
    09:00 +8°C° 0.2 mm 4 mps 750 mmHg 90%
    10:00 +8°C° 0.2 mm 4 mps 750 mmHg 88%
    11:00 +7°C° 0.2 mm 4 mps 750 mmHg 86%
    12:00 +7°C° 0.4 mm 4 mps 750 mmHg 85%
    13:00 +7°C° 0.4 mm 4 mps 750 mmHg 85%
    14:00 +6°C° 0.4 mm 4 mps 750 mmHg 84%
    15:00 +6°C° 1.7 mm 4 mps 750 mmHg 86%
    16:00 +6°C° 1.7 mm 5 mps 750 mmHg 88%
    17:00 +6°C° 1.7 mm 5 mps 750 mmHg 90%
    18:00 +6°C° 1.9 mm 5 mps 749 mmHg 89%
    19:00 +7°C° 1.9 mm 5 mps 749 mmHg 89%
    20:00 +7°C° 1.9 mm 5 mps 749 mmHg 89%
    21:00 +7°C° 1.5 mm 5 mps 749 mmHg 90%
    22:00 +7°C° 1.5 mm 5 mps 748 mmHg 92%
    23:00 +8°C° 1.5 mm 5 mps 748 mmHg 93%

    Tomorrow, 18 December, Monday

    Time Temperature Precipitation Wind Pressure Humidity
    00:00 +8°C° 1.6 mm 5 mps 748 mmHg 93%
    01:00 +8°C° 1.6 mm 5 mps 747 mmHg 94%
    02:00 +8°C° 1.6 mm 5 mps 747 mmHg 94%
    03:00 +8°C° 0.7 mm 5 mps 747 mmHg 93%
    04:00 +8°C° 0.7 mm 5 mps 746 mmHg 92%
    05:00 +8°C° 0.7 mm 5 mps 746 mmHg 92%
    06:00 +7°C° 0.1 mm 6 mps 746 mmHg 90%
    07:00 +7°C° 0.1 mm 6 mps 747 mmHg 89%
    08:00 +5°C° 0.1 mm 6 mps 747 mmHg 88%
    09:00 +4°C° 0 mm 6 mps 748 mmHg 85%
    10:00 +3°C° 0 mm 6 mps 748 mmHg 83%
    11:00 +2°C° 0 mm 7 mps 749 mmHg 80%
    12:00 +2°C° 0 mm 7 mps 750 mmHg 79%
    13:00 +2°C° 0 mm 7 mps 750 mmHg 77%
    14:00 +2°C° 0 mm 7 mps 751 mmHg 76%
    15:00 +1°C° 0 mm 6 mps 751 mmHg 76%
    16:00 +1°C° 0 mm 6 mps 752 mmHg 76%
    17:00 +1°C° 0 mm 6 mps 752 mmHg 76%
    18:00 -1°C° 0 mm 6 mps 753 mmHg 76%
    19:00 0°C° 0 mm 5 mps 753 mmHg 75%
    20:00 0°C° 0 mm 5 mps 754 mmHg 75%
    21:00 0°C° 0 mm 5 mps 754 mmHg 75%
    22:00 0°C° 0 mm 5 mps 755 mmHg 74%
    23:00 -1°C° 0 mm 5 mps 755 mmHg 74%

    Day after tomorrow, 19 December, Tuesday

    Time Temperature Precipitation Wind Pressure Humidity
    00:00 -1°C° 0 mm 5 mps 755 mmHg 76%
    01:00 -1°C° 0 mm 5 mps 755 mmHg 77%
    02:00 -2°C° 0 mm 5 mps 756 mmHg 79%
    03:00 -2°C° 0 mm 4 mps 756 mmHg 80%
    04:00 -2°C° 0 mm 4 mps 756 mmHg 81%
    05:00 -3°C° 0 mm 4 mps 756 mmHg 81%
    06:00 -3°C° 0 mm 4 mps 757 mmHg 81%
    07:00 -3°C° 0 mm 4 mps 757 mmHg 80%
    08:00 -3°C° 0 mm 4 mps 758 mmHg 80%
    09:00 -2°C° 0 mm 4 mps 758 mmHg 76%
    10:00 -2°C° 0 mm 4 mps 759 mmHg 72%
    11:00 -1°C° 0 mm 4 mps 759 mmHg 68%
    12:00 -1°C° 0 mm 4 mps 759 mmHg 67%
    13:00 0°C° 0 mm 4 mps 759 mmHg 66%
    14:00 0°C° 0 mm 4 mps 759 mmHg 64%
    15:00 0°C° 0 mm 3 mps 759 mmHg 68%
    16:00 -1°C° 0 mm 3 mps 760 mmHg 72%
    17:00 -1°C° 0 mm 3 mps 760 mmHg 76%
    18:00 -2°C° 0 mm 3 mps 760 mmHg 77%
    19:00 -2°C° 0 mm 3 mps 761 mmHg 78%
    20:00 -2°C° 0 mm 3 mps 761 mmHg 79%
    21:00 -2°C° 0 mm 3 mps 761 mmHg 78%
    22:00 -2°C° 0 mm 3 mps 761 mmHg 77%
    23:00 -2°C° 0 mm 3 mps 762 mmHg 76%

    20 December, Wednesday

    Time Temperature Precipitation Wind Pressure Humidity
    00:00 -3°C° 0 mm 2 mps 762 mmHg 76%
    01:00 -3°C° 0 mm 2 mps 762 mmHg 75%
    02:00 -3°C° 0 mm 2 mps 762 mmHg 75%
    03:00 -3°C° 0 mm 2 mps 762 mmHg 75%
    04:00 -3°C° 0 mm 2 mps 762 mmHg 74%
    05:00 -3°C° 0 mm 2 mps 762 mmHg 74%
    06:00 -1°C° 0 mm 1 mps 762 mmHg 73%
    07:00 -1°C° 0 mm 1 mps 763 mmHg 73%
    08:00 -1°C° 0 mm 1 mps 763 mmHg 72%
    09:00 -1°C° 0 mm 1 mps 763 mmHg 68%
    10:00 -2°C° 0 mm 2 mps 763 mmHg 63%
    11:00 -1°C° 0 mm 2 mps 763 mmHg 59%
    12:00 -1°C° 0 mm 2 mps 763 mmHg 57%
    13:00 -1°C° 0 mm 2 mps 763 mmHg 56%
    14:00 -1°C° 0 mm 2 mps 762 mmHg 55%
    15:00 -1°C° 0 mm 2 mps 762 mmHg 58%
    16:00 -2°C° 0 mm 2 mps 763 mmHg 61%
    17:00 -3°C° 0 mm 2 mps 763 mmHg 65%
    18:00 -3°C° 0 mm 2 mps 763 mmHg 66%
    19:00 -3°C° 0 mm 2 mps 763 mmHg 67%
    20:00 -4°C° 0 mm 3 mps 763 mmHg 68%
    21:00 -4°C° 0 mm 3 mps 763 mmHg 69%
    22:00 -4°C° 0 mm 3 mps 763 mmHg 69%
    23:00 -4°C° 0 mm 3 mps 763 mmHg 70%

    21 December, Thursday

    Time Temperature Precipitation Wind Pressure Humidity
    00:00 -4°C° 0 mm 3 mps 763 mmHg 70%
    01:00 -4°C° 0 mm 3 mps 762 mmHg 70%
    02:00 -4°C° 0 mm 3 mps 762 mmHg 70%
    03:00 -4°C° 0 mm 3 mps 762 mmHg 70%
    04:00 -4°C° 0 mm 4 mps 762 mmHg 70%
    05:00 -4°C° 0 mm 4 mps 762 mmHg 69%
    06:00 -4°C° 0 mm 4 mps 762 mmHg 69%
    07:00 -4°C° 0 mm 4 mps 761 mmHg 69%
    08:00 -4°C° 0 mm 4 mps 761 mmHg 69%
    09:00 -4°C° 0 mm 4 mps 761 mmHg 66%
    10:00 -3°C° 0 mm 4 mps 761 mmHg 63%
    11:00 -4°C° 0 mm 5 mps 760 mmHg 59%
    12:00 -2°C° 0 mm 5 mps 760 mmHg 58%
    13:00 -2°C° 0 mm 5 mps 759 mmHg 57%
    14:00 -2°C° 0 mm 5 mps 758 mmHg 56%
    15:00 -2°C° 0 mm 4 mps 758 mmHg 58%
    16:00 -3°C° 0 mm 4 mps 758 mmHg 60%
    17:00 -3°C° 0 mm 4 mps 758 mmHg 62%
    18:00 -3°C° 0 mm 4 mps 758 mmHg 63%
    19:00 -4°C° 0 mm 4 mps 758 mmHg 65%
    20:00 -4°C° 0 mm 4 mps 758 mmHg 66%
    21:00 -4°C° 0 mm 4 mps 757 mmHg 68%
    22:00 -4°C° 0 mm 4 mps 757 mmHg 69%
    23:00 -5°C° 0 mm 4 mps 757 mmHg 71%

    22 December, Friday

    Time Temperature Precipitation Wind Pressure Humidity
    00:00 -5°C° 0 mm 4 mps 757 mmHg 72%
    01:00 -5°C° 0 mm 3 mps 756 mmHg 73%
    02:00 -5°C° 0 mm 3 mps 756 mmHg 75%
    03:00 -5°C° 0 mm 3 mps 756 mmHg 76%
    04:00 -5°C° 0 mm 3 mps 756 mmHg 77%
    05:00 -5°C° 0 mm 3 mps 756 mmHg 78%
    06:00 -5°C° 0 mm 3 mps 756 mmHg 78%
    07:00 -4°C° 0 mm 2 mps 755 mmHg 78%
    08:00 -4°C° 0 mm 2 mps 755 mmHg 78%
    09:00 -3°C° 0 mm 2 mps 755 mmHg 73%
    10:00 -2°C° 0 mm 3 mps 755 mmHg 68%
    11:00 -1°C° 0 mm 3 mps 755 mmHg 63%
    12:00 -2°C° 0 mm 4 mps 754 mmHg 62%
    13:00 -2°C° 0 mm 4 mps 754 mmHg 60%
    14:00 -1°C° 0 mm 4 mps 753 mmHg 58%
    15:00 -2°C° 0 mm 4 mps 753 mmHg 63%
    16:00 -1°C° 0 mm 3 mps 753 mmHg 68%
    17:00 -1°C° 0 mm 3 mps 753 mmHg 72%
    18:00 -2°C° 0 mm 3 mps 753 mmHg 75%
    19:00 -2°C° 0 mm 3 mps 752 mmHg 78%
    20:00 -2°C° 0 mm 3 mps 752 mmHg 80%
    21:00 -2°C° 0 mm 3 mps 752 mmHg 81%
    22:00 -2°C° 0 mm 3 mps 752 mmHg 81%
    23:00 -2°C° 0 mm 3 mps 752 mmHg 82%
    Show more